User: anonymous   Login
Location: Newark
(11.5710°N, 104.9241°E)
Time: 12:33:47
(UTC+00:00)
Language:

CAS-4A - Orbit

View from above orbital plane
View from above orbital plane
View from above satellite
View from above satellite

Ground track
Ground track

The orbit data is extracted from the following two-line orbital elements,

1 42761U 17034D   20095.14154182  .00000311  00000-0  32357-4 0  9996
2 42761  43.0184  74.6803 0012992 284.7201 174.9814 15.09857105154732
Epoch (UTC): 04 April 2020 03:23:49
Eccentricity: 0.0012992
inclination: 43.0184°
perigee height: 527 km
apogee height: 545 km
right ascension of ascending node: 74.6803°
argument of perigee: 284.7201°
revolutions per day: 15.09857105
mean anomaly at epoch: 174.9814°
orbit number at epoch: 15473

The dashed part of the orbit path shows where the satellite is in the earth's shadow,  

DLR